N12VJ LEPA-EGPH

Flight info

Callsign N12VJ
Flight time 3h 54m
Altitude 30000
Route DRAGO DCT PAPOS DCT UMURE N863 GIROM DCT AGN DCT SECHE DCT UVELI DCT CNA DCT TUPAR UN861 ANG DCT AKIKI UN867 VASUX DCT TNT UN57 POL UN601 RIBEL DCT INPIP
Aircraft SF50/L-BDGRSWY/LB2U2

Departure

Time 2026-04-21 12:02
Airport Palma de Mallorca Airport (LEPA)

Arrival

Time 2026-04-21 15:57
Airport Edinburgh Airport (EGPH)
Time Latitude Longitude Altitude Speed Heading
2026-04-21 11:44 39.54220 2.72437 58 ft 0 kts 156°
2026-04-21 11:53 39.54218 2.72438 30 ft 1 kts 156°
2026-04-21 11:53 39.54206 2.72478 31 ft 10 kts 59°
2026-04-21 11:54 39.54207 2.72561 32 ft 12 kts 152°
2026-04-21 11:54 39.54212 2.72659 32 ft 15 kts 58°
2026-04-21 11:54 39.54269 2.72779 33 ft 14 kts 58°
2026-04-21 11:54 39.54227 2.72855 33 ft 13 kts 135°
2026-04-21 11:55 39.54242 2.72973 34 ft 16 kts 57°
2026-04-21 11:55 39.54309 2.73116 33 ft 20 kts 57°
2026-04-21 11:55 39.54390 2.73280 32 ft 23 kts 58°
2026-04-21 11:55 39.54466 2.73443 30 ft 19 kts 59°
2026-04-21 11:56 39.54530 2.73578 30 ft 16 kts 58°
2026-04-21 11:56 39.54586 2.73696 29 ft 17 kts 59°
2026-04-21 11:56 39.54654 2.73842 28 ft 20 kts 59°
2026-04-21 11:56 39.54724 2.73992 27 ft 18 kts 58°
2026-04-21 11:57 39.54793 2.74119 27 ft 15 kts 27°
2026-04-21 11:57 39.54884 2.74081 26 ft 16 kts 328°
2026-04-21 11:57 39.54996 2.73993 27 ft 21 kts 328°
2026-04-21 11:57 39.55117 2.73897 27 ft 19 kts 329°
2026-04-21 11:58 39.55219 2.73816 27 ft 15 kts 328°
2026-04-21 11:58 39.55302 2.73752 27 ft 14 kts 329°
2026-04-21 11:58 39.55408 2.73668 28 ft 21 kts 328°
2026-04-21 11:58 39.55527 2.73573 28 ft 18 kts 329°
2026-04-21 11:59 39.55630 2.73501 28 ft 16 kts 358°
2026-04-21 11:59 39.55695 2.73592 28 ft 14 kts 58°
2026-04-21 11:59 39.55750 2.73705 29 ft 15 kts 58°
2026-04-21 11:59 39.55808 2.73826 30 ft 16 kts 58°
2026-04-21 12:00 39.55870 2.73956 30 ft 17 kts 59°
2026-04-21 12:00 39.55935 2.74094 31 ft 18 kts 58°
2026-04-21 12:00 39.56005 2.74225 32 ft 16 kts 38°
2026-04-21 12:00 39.56088 2.74299 33 ft 13 kts 36°
2026-04-21 12:01 39.56163 2.74364 34 ft 14 kts 23°
2026-04-21 12:01 39.56256 2.74355 33 ft 12 kts 334°
2026-04-21 12:01 39.56259 2.74321 33 ft 0 kts 236°
2026-04-21 12:02 39.56169 2.74134 32 ft 59 kts 238°
2026-04-21 12:02 39.55368 2.72444 369 ft 148 kts 239°
2026-04-21 12:02 39.54765 2.71254 1011 ft 160 kts 233°
2026-04-21 12:03 39.54141 2.69993 1799 ft 172 kts 235°
2026-04-21 12:03 39.53502 2.68709 2645 ft 171 kts 235°
2026-04-21 12:03 39.52840 2.67395 3468 ft 173 kts 235°
2026-04-21 12:03 39.52187 2.66101 4251 ft 175 kts 234°
2026-04-21 12:04 39.51515 2.64770 5026 ft 178 kts 235°
2026-04-21 12:04 39.50830 2.63420 5785 ft 181 kts 234°
2026-04-21 12:04 39.50133 2.62047 6513 ft 184 kts 235°
2026-04-21 12:04 39.49429 2.60660 7234 ft 185 kts 235°
2026-04-21 12:05 39.48897 2.59160 7935 ft 188 kts 265°
2026-04-21 12:05 39.49357 2.57624 8697 ft 188 kts 310°
2026-04-21 12:05 39.50273 2.56402 9410 ft 190 kts 311°
2026-04-21 12:05 39.51131 2.55107 10133 ft 189 kts 308°
2026-04-21 12:06 39.51965 2.53783 10803 ft 190 kts 308°
2026-04-21 12:06 39.52811 2.52468 11497 ft 190 kts 308°
2026-04-21 12:06 39.53653 2.51146 12182 ft 191 kts 308°
2026-04-21 12:06 39.54499 2.49817 12860 ft 191 kts 308°
2026-04-21 12:07 39.55347 2.48488 13548 ft 192 kts 308°
2026-04-21 12:07 39.56200 2.47157 14138 ft 192 kts 308°
2026-04-21 12:07 39.57055 2.45815 14673 ft 194 kts 307°
2026-04-21 12:07 39.57921 2.44460 15164 ft 196 kts 308°
2026-04-21 12:08 39.58499 2.43561 15502 ft 197 kts 307°
2026-04-21 12:08 39.59374 2.42188 15995 ft 198 kts 307°
2026-04-21 12:08 39.60255 2.40800 16456 ft 201 kts 307°
2026-04-21 12:08 39.61148 2.39402 16929 ft 202 kts 307°
2026-04-21 12:09 39.62044 2.37993 17387 ft 203 kts 307°
2026-04-21 12:09 39.62949 2.36572 17820 ft 205 kts 307°
2026-04-21 12:09 39.63858 2.35141 18241 ft 206 kts 307°
2026-04-21 12:09 39.64774 2.33701 18611 ft 207 kts 307°
2026-04-21 12:10 39.65694 2.32254 18968 ft 208 kts 307°
2026-04-21 12:10 39.66616 2.30801 19324 ft 209 kts 307°
2026-04-21 12:10 39.67545 2.29343 19674 ft 210 kts 307°
2026-04-21 12:10 39.68476 2.27875 19992 ft 211 kts 307°
2026-04-21 12:11 39.69416 2.26397 20298 ft 212 kts 307°
2026-04-21 12:11 39.70356 2.24914 20608 ft 213 kts 307°
2026-04-21 12:11 39.71302 2.23425 20917 ft 214 kts 307°
2026-04-21 12:11 39.72245 2.21936 21254 ft 213 kts 306°
2026-04-21 12:12 39.73184 2.20451 21596 ft 212 kts 306°
2026-04-21 12:12 39.74121 2.18973 21936 ft 212 kts 306°
2026-04-21 12:12 39.75054 2.17496 22278 ft 211 kts 306°
2026-04-21 12:12 39.75985 2.16025 22620 ft 210 kts 306°
2026-04-21 12:13 39.76912 2.14556 22964 ft 210 kts 306°
2026-04-21 12:13 39.77838 2.13092 23306 ft 209 kts 306°
2026-04-21 12:13 39.78761 2.11632 23638 ft 209 kts 306°
2026-04-21 12:13 39.79682 2.10174 23924 ft 208 kts 306°
2026-04-21 12:14 39.80600 2.08722 24215 ft 208 kts 306°
2026-04-21 12:14 39.81514 2.07271 24510 ft 207 kts 306°
2026-04-21 12:14 39.82427 2.05826 24804 ft 207 kts 306°
2026-04-21 12:14 39.83338 2.04379 25105 ft 206 kts 306°
2026-04-21 12:15 39.84246 2.02940 25410 ft 206 kts 306°
2026-04-21 12:15 39.85148 2.01502 25718 ft 205 kts 306°
2026-04-21 12:15 39.86052 2.00068 26028 ft 204 kts 305°
2026-04-21 12:15 39.86950 1.98637 26335 ft 204 kts 305°
2026-04-21 12:16 39.87848 1.97210 26644 ft 204 kts 305°
2026-04-21 12:16 39.88743 1.95783 26956 ft 203 kts 305°
2026-04-21 12:16 39.89637 1.94360 27275 ft 203 kts 305°
2026-04-21 12:16 39.90528 1.92942 27585 ft 202 kts 305°
2026-04-21 12:17 39.91425 1.91533 27898 ft 202 kts 308°
2026-04-21 12:17 39.92554 1.90408 28188 ft 208 kts 326°
2026-04-21 12:17 39.93935 1.89756 28485 ft 214 kts 341°
2026-04-21 12:17 39.95390 1.89335 28772 ft 214 kts 340°
2026-04-21 12:18 39.96838 1.88879 29070 ft 214 kts 340°
2026-04-21 12:18 39.98265 1.88443 29369 ft 214 kts 340°
2026-04-21 12:18 39.99711 1.88004 29663 ft 213 kts 340°
2026-04-21 12:18 40.01156 1.87563 29947 ft 214 kts 340°
2026-04-21 12:19 40.02641 1.87105 29972 ft 225 kts 340°
2026-04-21 12:19 40.04200 1.86629 29968 ft 235 kts 341°
2026-04-21 12:19 40.05818 1.86137 29972 ft 243 kts 341°
2026-04-21 12:19 40.07487 1.85628 29969 ft 250 kts 341°
2026-04-21 12:20 40.09201 1.85106 29968 ft 256 kts 341°
2026-04-21 12:20 40.10957 1.84569 29966 ft 262 kts 341°
2026-04-21 12:20 40.12753 1.84021 29968 ft 268 kts 341°
2026-04-21 12:20 40.14594 1.83460 29967 ft 275 kts 342°
2026-04-21 12:21 40.16476 1.82886 29970 ft 280 kts 342°
2026-04-21 12:21 40.18394 1.82300 29968 ft 285 kts 342°
2026-04-21 12:21 40.20341 1.81704 29964 ft 289 kts 342°
2026-04-21 12:21 40.22311 1.81101 29964 ft 293 kts 342°
2026-04-21 12:22 40.24305 1.80491 29973 ft 296 kts 342°
2026-04-21 12:22 40.26320 1.79873 29966 ft 299 kts 342°
2026-04-21 12:22 40.28349 1.79250 29965 ft 301 kts 342°
2026-04-21 12:23 40.32451 1.77989 29963 ft 304 kts 342°
2026-04-21 12:23 40.36559 1.76727 29964 ft 303 kts 342°
2026-04-21 12:24 40.40660 1.75464 29960 ft 302 kts 342°
2026-04-21 12:24 40.44748 1.74203 29960 ft 302 kts 342°
2026-04-21 12:25 40.48831 1.72945 29964 ft 301 kts 342°
2026-04-21 12:25 40.52910 1.71686 29963 ft 301 kts 342°
2026-04-21 12:26 40.56955 1.70435 29960 ft 300 kts 342°
2026-04-21 12:26 40.58990 1.69804 29959 ft 300 kts 342°
2026-04-21 12:26 40.61022 1.69174 29959 ft 300 kts 342°
2026-04-21 12:26 40.63055 1.68542 29959 ft 300 kts 342°
2026-04-21 12:27 40.65087 1.67912 29963 ft 300 kts 342°
2026-04-21 12:27 40.67118 1.67281 29963 ft 300 kts 342°
2026-04-21 12:27 40.69148 1.66649 29963 ft 300 kts 342°
2026-04-21 12:27 40.71178 1.66019 29963 ft 300 kts 342°
2026-04-21 12:28 40.73207 1.65387 29957 ft 300 kts 342°
2026-04-21 12:28 40.75237 1.64755 29957 ft 300 kts 342°
2026-04-21 12:28 40.77265 1.64125 29957 ft 300 kts 342°
2026-04-21 12:28 40.79294 1.63494 29957 ft 300 kts 342°
2026-04-21 12:29 40.81325 1.62859 29963 ft 300 kts 342°
2026-04-21 12:29 40.83351 1.62229 29963 ft 299 kts 342°
2026-04-21 12:29 40.85380 1.61595 29963 ft 299 kts 342°
2026-04-21 12:29 40.87406 1.60962 29963 ft 299 kts 342°
2026-04-21 12:30 40.89434 1.60329 29959 ft 299 kts 342°
2026-04-21 12:30 40.91459 1.59695 29963 ft 299 kts 341°
2026-04-21 12:30 40.93484 1.59060 29963 ft 299 kts 341°
2026-04-21 12:30 40.95501 1.58427 29962 ft 298 kts 341°
2026-04-21 12:31 40.97519 1.57795 29959 ft 298 kts 341°
2026-04-21 12:31 40.99532 1.57163 29958 ft 297 kts 341°
2026-04-21 12:31 41.01547 1.56530 29956 ft 298 kts 341°
2026-04-21 12:31 41.03569 1.55895 29957 ft 299 kts 341°
2026-04-21 12:32 41.05597 1.55258 29963 ft 300 kts 341°
2026-04-21 12:32 41.09671 1.53979 29955 ft 301 kts 341°
2026-04-21 12:33 41.13756 1.52692 29952 ft 301 kts 341°
2026-04-21 12:33 41.15789 1.52053 29951 ft 300 kts 341°
2026-04-21 12:33 41.17815 1.51414 29945 ft 299 kts 341°
2026-04-21 12:33 41.19833 1.50778 29945 ft 298 kts 341°
2026-04-21 12:34 41.21848 1.50140 29942 ft 298 kts 341°
2026-04-21 12:34 41.23865 1.49503 29944 ft 298 kts 341°
2026-04-21 12:34 41.25888 1.48863 29942 ft 299 kts 341°
2026-04-21 12:34 41.27915 1.48220 29944 ft 300 kts 341°
2026-04-21 12:35 41.29917 1.47586 29942 ft 300 kts 341°
2026-04-21 12:35 41.33992 1.46296 29954 ft 302 kts 341°
2026-04-21 12:36 41.38076 1.44998 29944 ft 301 kts 341°
2026-04-21 12:36 41.40106 1.44355 29943 ft 300 kts 341°
2026-04-21 12:36 41.42134 1.43712 29942 ft 299 kts 341°
2026-04-21 12:36 41.44152 1.43069 29939 ft 298 kts 341°
2026-04-21 12:37 41.46174 1.42426 29941 ft 298 kts 341°
2026-04-21 12:37 41.48188 1.41785 29941 ft 297 kts 341°
2026-04-21 12:37 41.50201 1.41143 29939 ft 298 kts 341°
2026-04-21 12:37 41.52219 1.40499 29936 ft 299 kts 341°
2026-04-21 12:38 41.54244 1.39853 29933 ft 300 kts 341°
2026-04-21 12:38 41.58314 1.38553 29937 ft 302 kts 342°
2026-04-21 12:39 41.62399 1.37247 29929 ft 301 kts 342°
2026-04-21 12:39 41.66469 1.35944 29921 ft 300 kts 342°
2026-04-21 12:39 41.68495 1.35294 29914 ft 299 kts 342°
2026-04-21 12:40 41.70515 1.34646 29913 ft 298 kts 342°
2026-04-21 12:40 41.72533 1.33998 29911 ft 298 kts 342°
2026-04-21 12:40 41.74548 1.33353 29908 ft 298 kts 342°
2026-04-21 12:40 41.76561 1.32705 29905 ft 297 kts 342°
2026-04-21 12:41 41.78576 1.32057 29904 ft 299 kts 342°
2026-04-21 12:41 41.80599 1.31408 29901 ft 299 kts 342°
2026-04-21 12:41 41.82621 1.30757 29878 ft 299 kts 342°
2026-04-21 12:41 41.84647 1.30105 29873 ft 299 kts 342°
2026-04-21 12:42 41.86674 1.29450 29865 ft 300 kts 342°
2026-04-21 12:42 41.88703 1.28796 29860 ft 300 kts 342°
2026-04-21 12:42 41.90733 1.28140 29862 ft 300 kts 342°
2026-04-21 12:43 41.94801 1.26825 29862 ft 301 kts 342°
2026-04-21 12:43 41.98874 1.25506 29862 ft 302 kts 342°
2026-04-21 12:43 42.00910 1.24846 29864 ft 300 kts 342°
2026-04-21 12:44 42.02932 1.24192 29861 ft 298 kts 342°
2026-04-21 12:44 42.04942 1.23542 29860 ft 296 kts 342°
2026-04-21 12:44 42.06952 1.22888 29861 ft 298 kts 342°
2026-04-21 12:44 42.08977 1.22231 29867 ft 300 kts 342°
2026-04-21 12:45 42.11006 1.21573 29875 ft 300 kts 342°
2026-04-21 12:45 42.15070 1.20251 29884 ft 300 kts 342°
2026-04-21 12:45 42.17099 1.19591 29891 ft 300 kts 342°
2026-04-21 12:46 42.19122 1.18932 29936 ft 299 kts 342°
2026-04-21 12:46 42.21148 1.18272 29945 ft 299 kts 342°
2026-04-21 12:46 42.23166 1.17612 29945 ft 298 kts 342°
2026-04-21 12:46 42.25184 1.16952 29948 ft 298 kts 342°
2026-04-21 12:47 42.27206 1.16293 29943 ft 300 kts 342°
2026-04-21 12:47 42.29209 1.15639 29943 ft 300 kts 342°
2026-04-21 12:47 42.31240 1.14972 29950 ft 301 kts 342°
2026-04-21 12:48 42.35324 1.13635 29951 ft 303 kts 342°
2026-04-21 12:48 42.39411 1.12282 29951 ft 302 kts 342°
2026-04-21 12:49 42.43488 1.10965 29948 ft 299 kts 342°
2026-04-21 12:49 42.45508 1.10299 29950 ft 299 kts 342°
2026-04-21 12:49 42.47535 1.09628 29952 ft 300 kts 342°
2026-04-21 12:50 42.51597 1.08293 29950 ft 300 kts 342°
2026-04-21 12:50 42.53625 1.07623 29953 ft 300 kts 342°
2026-04-21 12:50 42.55659 1.06952 29953 ft 302 kts 342°
2026-04-21 12:51 42.59751 1.05601 29956 ft 302 kts 343°
2026-04-21 12:51 42.63812 1.04259 29956 ft 300 kts 342°
2026-04-21 12:51 42.65835 1.03589 29954 ft 299 kts 342°
2026-04-21 12:52 42.67854 1.02922 29953 ft 298 kts 342°
2026-04-21 12:52 42.69869 1.02255 29942 ft 298 kts 342°
2026-04-21 12:52 42.71881 1.01589 29941 ft 298 kts 342°
2026-04-21 12:52 42.73892 1.00922 29940 ft 297 kts 342°
2026-04-21 12:53 42.75905 1.00252 29942 ft 298 kts 342°
2026-04-21 12:53 42.80032 0.99459 29925 ft 303 kts 352°
2026-04-21 12:54 42.84249 0.98978 29931 ft 304 kts 351°
2026-04-21 12:54 42.87747 0.98598 29912 ft 302 kts 351°
2026-04-21 12:54 42.90513 0.98294 29907 ft 300 kts 351°
2026-04-21 12:55 42.92601 0.98060 29907 ft 302 kts 351°
2026-04-21 12:55 42.96128 0.97672 29911 ft 304 kts 351°
2026-04-21 12:56 43.01031 0.97130 29913 ft 305 kts 351°
2026-04-21 12:56 43.04546 0.96745 29902 ft 299 kts 351°
2026-04-21 12:56 43.06614 0.96516 29897 ft 298 kts 351°
2026-04-21 12:57 43.08687 0.96285 29895 ft 299 kts 351°
2026-04-21 12:57 43.10762 0.96055 29885 ft 300 kts 351°
2026-04-21 12:57 43.12816 0.95828 29886 ft 300 kts 351°
2026-04-21 12:58 43.16991 0.95362 29886 ft 302 kts 351°
2026-04-21 12:58 43.21178 0.94896 29882 ft 302 kts 351°
2026-04-21 12:59 43.25352 0.94435 29883 ft 298 kts 351°
2026-04-21 12:59 43.27409 0.94204 29877 ft 297 kts 351°
2026-04-21 12:59 43.29465 0.93970 29876 ft 297 kts 351°
2026-04-21 12:59 43.31523 0.93743 29876 ft 297 kts 351°
2026-04-21 13:00 43.33584 0.93514 29876 ft 297 kts 351°
2026-04-21 13:00 43.35648 0.93284 29876 ft 298 kts 351°
2026-04-21 13:00 43.37712 0.93052 29876 ft 298 kts 351°
2026-04-21 13:00 43.39781 0.92821 29877 ft 298 kts 351°
2026-04-21 13:01 43.41851 0.92590 29874 ft 299 kts 351°
2026-04-21 13:01 43.43923 0.92357 29881 ft 299 kts 351°
2026-04-21 13:01 43.45998 0.92124 29882 ft 299 kts 351°
2026-04-21 13:01 43.48074 0.91892 29882 ft 299 kts 351°
2026-04-21 13:02 43.50150 0.91657 29882 ft 299 kts 351°
2026-04-21 13:02 43.52227 0.91424 29882 ft 299 kts 351°
2026-04-21 13:02 43.56381 0.90956 29883 ft 300 kts 351°
2026-04-21 13:03 43.58461 0.90721 29882 ft 300 kts 351°
2026-04-21 13:03 43.60541 0.90487 29886 ft 300 kts 351°
2026-04-21 13:03 43.62618 0.90253 29886 ft 300 kts 351°
2026-04-21 13:03 43.64693 0.90020 29887 ft 297 kts 351°
2026-04-21 13:04 43.66746 0.89789 29884 ft 295 kts 351°
2026-04-21 13:04 43.68785 0.89558 29881 ft 294 kts 351°
2026-04-21 13:04 43.70825 0.89327 29880 ft 294 kts 351°
2026-04-21 13:04 43.72871 0.89095 29874 ft 295 kts 351°
2026-04-21 13:05 43.74916 0.88865 29884 ft 295 kts 351°
2026-04-21 13:05 43.76963 0.88633 29884 ft 295 kts 351°
2026-04-21 13:05 43.79012 0.88398 29884 ft 296 kts 351°
2026-04-21 13:05 43.81065 0.88166 29885 ft 296 kts 351°
2026-04-21 13:06 43.83121 0.87933 29896 ft 296 kts 350°
2026-04-21 13:06 43.85142 0.87704 29888 ft 294 kts 350°
2026-04-21 13:06 43.87173 0.87471 29886 ft 291 kts 350°
2026-04-21 13:06 43.89143 0.86937 29876 ft 287 kts 338°
2026-04-21 13:07 43.90980 0.85889 29881 ft 285 kts 330°
2026-04-21 13:07 43.92773 0.84716 29884 ft 286 kts 331°
2026-04-21 13:07 43.94589 0.83562 29887 ft 287 kts 331°
2026-04-21 13:07 43.96408 0.82395 29885 ft 288 kts 331°
2026-04-21 13:08 43.98224 0.81222 29886 ft 288 kts 331°
2026-04-21 13:08 44.00036 0.80053 29885 ft 287 kts 331°
2026-04-21 13:08 44.01840 0.78887 29883 ft 286 kts 331°
2026-04-21 13:08 44.03638 0.77728 29896 ft 284 kts 330°
2026-04-21 13:09 44.05429 0.76568 29894 ft 283 kts 330°
2026-04-21 13:09 44.07214 0.75413 29882 ft 284 kts 330°
2026-04-21 13:09 44.09018 0.74244 29883 ft 287 kts 330°
2026-04-21 13:09 44.10831 0.73069 29886 ft 288 kts 331°
2026-04-21 13:10 44.12648 0.71894 29887 ft 288 kts 331°
2026-04-21 13:10 44.14461 0.70715 29881 ft 287 kts 331°
2026-04-21 13:10 44.16272 0.69539 29883 ft 287 kts 331°
2026-04-21 13:10 44.18080 0.68364 29884 ft 287 kts 331°
2026-04-21 13:11 44.19886 0.67189 29891 ft 287 kts 331°
2026-04-21 13:11 44.21693 0.66015 29888 ft 286 kts 331°
2026-04-21 13:11 44.23498 0.64839 29892 ft 286 kts 330°
2026-04-21 13:11 44.25299 0.63668 29891 ft 285 kts 330°
2026-04-21 13:12 44.27095 0.62498 29890 ft 284 kts 330°
2026-04-21 13:12 44.28885 0.61330 29890 ft 283 kts 330°
2026-04-21 13:12 44.30669 0.60166 29883 ft 283 kts 330°
2026-04-21 13:12 44.32457 0.58997 29884 ft 284 kts 330°
2026-04-21 13:13 44.34251 0.57825 29887 ft 285 kts 330°
2026-04-21 13:13 44.36049 0.56649 29888 ft 286 kts 330°
2026-04-21 13:13 44.37852 0.55469 29888 ft 287 kts 330°
2026-04-21 13:13 44.39659 0.54285 29887 ft 287 kts 330°
2026-04-21 13:14 44.41467 0.53098 29884 ft 287 kts 330°
2026-04-21 13:14 44.43275 0.51913 29886 ft 285 kts 330°
2026-04-21 13:14 44.45062 0.50742 29884 ft 282 kts 330°
2026-04-21 13:14 44.46830 0.49566 29883 ft 281 kts 330°
2026-04-21 13:15 44.48603 0.48386 29883 ft 282 kts 330°
2026-04-21 13:15 44.50380 0.47210 29883 ft 283 kts 330°
2026-04-21 13:15 44.52156 0.46033 29883 ft 282 kts 330°
2026-04-21 13:15 44.53932 0.44857 29883 ft 282 kts 330°
2026-04-21 13:16 44.55709 0.43676 29881 ft 283 kts 330°
2026-04-21 13:16 44.57486 0.42495 29881 ft 283 kts 330°
2026-04-21 13:16 44.59262 0.41314 29882 ft 283 kts 330°
2026-04-21 13:16 44.61041 0.40132 29883 ft 283 kts 330°
2026-04-21 13:17 44.62820 0.38946 29889 ft 283 kts 330°
2026-04-21 13:17 44.64572 0.37778 29879 ft 283 kts 330°
2026-04-21 13:17 44.66357 0.36587 29879 ft 285 kts 330°
2026-04-21 13:17 44.68153 0.35387 29881 ft 287 kts 330°
2026-04-21 13:18 44.69959 0.34182 29883 ft 287 kts 330°
2026-04-21 13:18 44.71761 0.32977 29884 ft 287 kts 330°
2026-04-21 13:18 44.73559 0.31776 29883 ft 286 kts 330°
2026-04-21 13:18 44.75354 0.30573 29882 ft 286 kts 330°
2026-04-21 13:19 44.77150 0.29371 29883 ft 286 kts 330°
2026-04-21 13:19 44.78944 0.28170 29883 ft 286 kts 330°
2026-04-21 13:19 44.80738 0.26967 29881 ft 285 kts 330°
2026-04-21 13:19 44.82529 0.25766 29881 ft 285 kts 330°
2026-04-21 13:20 44.84320 0.24564 29880 ft 285 kts 330°
2026-04-21 13:20 44.86107 0.23361 29879 ft 285 kts 330°
2026-04-21 13:20 44.87895 0.22160 29880 ft 284 kts 330°
2026-04-21 13:20 44.89681 0.20960 29881 ft 284 kts 330°
2026-04-21 13:21 44.91466 0.19755 29884 ft 285 kts 330°
2026-04-21 13:21 44.93254 0.18551 29885 ft 284 kts 330°
2026-04-21 13:21 44.95038 0.17348 29885 ft 284 kts 330°
2026-04-21 13:21 44.96824 0.16143 29886 ft 284 kts 330°
2026-04-21 13:22 44.98609 0.14937 29881 ft 284 kts 330°
2026-04-21 13:22 45.00391 0.13733 29903 ft 284 kts 330°
2026-04-21 13:22 45.02163 0.12535 29902 ft 281 kts 330°
2026-04-21 13:22 45.03922 0.11343 29903 ft 280 kts 330°
2026-04-21 13:23 45.05680 0.10152 29904 ft 281 kts 330°
2026-04-21 13:23 45.07443 0.08959 29903 ft 281 kts 330°
2026-04-21 13:23 45.09207 0.07764 29903 ft 282 kts 330°
2026-04-21 13:23 45.10974 0.06564 29903 ft 282 kts 330°
2026-04-21 13:24 45.12747 0.05361 29902 ft 282 kts 330°
2026-04-21 13:24 45.14518 0.04159 29902 ft 283 kts 330°
2026-04-21 13:24 45.16291 0.02952 29904 ft 283 kts 330°
2026-04-21 13:24 45.18067 0.01745 29904 ft 283 kts 330°
2026-04-21 13:25 45.19843 0.00535 29909 ft 283 kts 330°
2026-04-21 13:25 45.21582 -0.00649 29904 ft 280 kts 329°
2026-04-21 13:25 45.23365 -0.01867 29900 ft 282 kts 329°
2026-04-21 13:25 45.25118 -0.03065 29900 ft 284 kts 329°
2026-04-21 13:26 45.26902 -0.04281 29901 ft 285 kts 329°
2026-04-21 13:26 45.28688 -0.05503 29904 ft 285 kts 329°
2026-04-21 13:26 45.30474 -0.06724 29903 ft 285 kts 329°
2026-04-21 13:26 45.32257 -0.07942 29912 ft 284 kts 329°
2026-04-21 13:27 45.34036 -0.09161 29911 ft 284 kts 329°
2026-04-21 13:27 45.35813 -0.10379 29913 ft 284 kts 329°
2026-04-21 13:27 45.37591 -0.11598 29914 ft 283 kts 329°
2026-04-21 13:27 45.39364 -0.12812 29932 ft 283 kts 329°
2026-04-21 13:28 45.41135 -0.14029 29934 ft 282 kts 329°
2026-04-21 13:28 45.42903 -0.15244 29934 ft 282 kts 329°
2026-04-21 13:28 45.44666 -0.16456 29935 ft 281 kts 329°
2026-04-21 13:28 45.46427 -0.17666 29939 ft 281 kts 329°
2026-04-21 13:29 45.48183 -0.18876 29940 ft 280 kts 329°
2026-04-21 13:29 45.49939 -0.20088 29940 ft 280 kts 329°
2026-04-21 13:29 45.51692 -0.21296 29940 ft 280 kts 329°
2026-04-21 13:29 45.53444 -0.22504 29942 ft 280 kts 329°
2026-04-21 13:30 45.55195 -0.23715 29940 ft 279 kts 329°
2026-04-21 13:30 45.56943 -0.24924 29941 ft 279 kts 329°
2026-04-21 13:30 45.58692 -0.26134 29944 ft 279 kts 329°
2026-04-21 13:30 45.60433 -0.27335 29944 ft 278 kts 329°
2026-04-21 13:31 45.62175 -0.28542 29945 ft 279 kts 329°
2026-04-21 13:31 45.63923 -0.29755 29943 ft 280 kts 329°
2026-04-21 13:31 45.65677 -0.30960 29944 ft 281 kts 330°
2026-04-21 13:31 45.67539 -0.31873 29941 ft 284 kts 338°
2026-04-21 13:32 45.69428 -0.32704 29943 ft 284 kts 337°
2026-04-21 13:32 45.71314 -0.33574 29949 ft 285 kts 336°
2026-04-21 13:32 45.73206 -0.34432 29950 ft 286 kts 337°
2026-04-21 13:32 45.75105 -0.35283 29950 ft 286 kts 337°
2026-04-21 13:33 45.77005 -0.36140 29948 ft 287 kts 337°
2026-04-21 13:33 45.78901 -0.36998 29958 ft 284 kts 337°
2026-04-21 13:33 45.80753 -0.37832 29951 ft 281 kts 337°
2026-04-21 13:33 45.82618 -0.38678 29948 ft 282 kts 337°
2026-04-21 13:34 45.84489 -0.39528 29950 ft 282 kts 337°
2026-04-21 13:34 45.86365 -0.40376 29951 ft 283 kts 337°
2026-04-21 13:34 45.88244 -0.41229 29954 ft 283 kts 337°
2026-04-21 13:34 45.90126 -0.42082 29950 ft 284 kts 337°
2026-04-21 13:35 45.92012 -0.42936 29957 ft 284 kts 337°
2026-04-21 13:35 45.93901 -0.43795 29963 ft 285 kts 337°
2026-04-21 13:35 45.95790 -0.44653 29968 ft 285 kts 337°
2026-04-21 13:35 45.97683 -0.45513 29981 ft 285 kts 337°
2026-04-21 13:36 45.99562 -0.46366 29966 ft 282 kts 336°
2026-04-21 13:36 46.01424 -0.47215 29963 ft 280 kts 336°
2026-04-21 13:36 46.03283 -0.48064 29972 ft 280 kts 336°
2026-04-21 13:36 46.05144 -0.48913 29966 ft 281 kts 336°
2026-04-21 13:37 46.07008 -0.49765 29960 ft 281 kts 336°
2026-04-21 13:37 46.08872 -0.50617 29960 ft 281 kts 336°
2026-04-21 13:37 46.10741 -0.51471 29971 ft 282 kts 336°
2026-04-21 13:37 46.12609 -0.52326 29966 ft 282 kts 336°
2026-04-21 13:38 46.14476 -0.53181 29973 ft 282 kts 336°
2026-04-21 13:38 46.16348 -0.54039 29966 ft 282 kts 336°
2026-04-21 13:38 46.18219 -0.54897 29978 ft 282 kts 336°
2026-04-21 13:38 46.20082 -0.55751 29977 ft 280 kts 336°
2026-04-21 13:39 46.21936 -0.56601 29971 ft 279 kts 336°
2026-04-21 13:39 46.23782 -0.57450 29970 ft 278 kts 336°
2026-04-21 13:39 46.25632 -0.58301 29975 ft 279 kts 336°
2026-04-21 13:39 46.27488 -0.59156 29976 ft 280 kts 336°
2026-04-21 13:40 46.29322 -0.59999 29982 ft 281 kts 336°
2026-04-21 13:40 46.31189 -0.60856 29980 ft 282 kts 336°
2026-04-21 13:40 46.33058 -0.61720 29988 ft 282 kts 336°
2026-04-21 13:40 46.34953 -0.62596 29989 ft 283 kts 336°
2026-04-21 13:41 46.36827 -0.63460 29998 ft 283 kts 336°
2026-04-21 13:41 46.38670 -0.64311 29986 ft 280 kts 336°
2026-04-21 13:41 46.40516 -0.65163 29983 ft 278 kts 336°
2026-04-21 13:41 46.42356 -0.66009 29989 ft 278 kts 338°
2026-04-21 13:42 46.44282 -0.66514 29985 ft 284 kts 347°
2026-04-21 13:42 46.46250 -0.66817 29986 ft 285 kts 346°
2026-04-21 13:42 46.48218 -0.67161 29987 ft 285 kts 346°
2026-04-21 13:42 46.50189 -0.67500 29993 ft 286 kts 347°
2026-04-21 13:43 46.52165 -0.67827 29990 ft 286 kts 347°
2026-04-21 13:43 46.54148 -0.68158 29991 ft 287 kts 347°
2026-04-21 13:43 46.56131 -0.68492 29992 ft 287 kts 347°
2026-04-21 13:43 46.58115 -0.68824 30009 ft 285 kts 346°
2026-04-21 13:44 46.60069 -0.69148 30005 ft 282 kts 346°
2026-04-21 13:44 46.62014 -0.69479 30003 ft 281 kts 346°
2026-04-21 13:44 46.63958 -0.69807 30005 ft 281 kts 346°
2026-04-21 13:44 46.65245 -0.70025 30010 ft 281 kts 346°
2026-04-21 13:45 46.67189 -0.70352 30013 ft 281 kts 346°
2026-04-21 13:45 46.69135 -0.70682 30010 ft 281 kts 346°
2026-04-21 13:45 46.71081 -0.71011 30010 ft 282 kts 346°
2026-04-21 13:45 46.73027 -0.71340 30016 ft 282 kts 346°
2026-04-21 13:46 46.74976 -0.71671 30019 ft 282 kts 346°
2026-04-21 13:46 46.76927 -0.72001 30017 ft 282 kts 346°
2026-04-21 13:46 46.78877 -0.72329 30020 ft 282 kts 346°
2026-04-21 13:46 46.80830 -0.72658 30017 ft 282 kts 346°
2026-04-21 13:47 46.82780 -0.72991 30022 ft 282 kts 346°
2026-04-21 13:47 46.84733 -0.73322 30022 ft 282 kts 346°
2026-04-21 13:47 46.86683 -0.73653 30023 ft 283 kts 346°
2026-04-21 13:47 46.88638 -0.73984 30022 ft 283 kts 346°
2026-04-21 13:48 46.90594 -0.74316 30022 ft 283 kts 346°
2026-04-21 13:48 46.92547 -0.74650 30023 ft 283 kts 346°
2026-04-21 13:48 46.94501 -0.74982 30024 ft 283 kts 346°
2026-04-21 13:48 46.96454 -0.75315 30022 ft 283 kts 346°
2026-04-21 13:49 46.98409 -0.75649 30041 ft 282 kts 346°
2026-04-21 13:49 47.00356 -0.75983 30037 ft 281 kts 346°
2026-04-21 13:49 47.02296 -0.76313 30036 ft 280 kts 346°
2026-04-21 13:49 47.04225 -0.76644 30034 ft 279 kts 346°
2026-04-21 13:50 47.06158 -0.76977 30042 ft 280 kts 346°
2026-04-21 13:50 47.08096 -0.77309 30044 ft 281 kts 346°
2026-04-21 13:50 47.10039 -0.77640 30044 ft 282 kts 346°
2026-04-21 13:50 47.11988 -0.77974 30049 ft 283 kts 346°
2026-04-21 13:51 47.13945 -0.78310 30057 ft 283 kts 346°
2026-04-21 13:51 47.15905 -0.78644 30062 ft 283 kts 346°
2026-04-21 13:51 47.17853 -0.78979 30071 ft 282 kts 346°
2026-04-21 13:51 47.19803 -0.79315 30056 ft 281 kts 346°
2026-04-21 13:52 47.21744 -0.79647 30052 ft 280 kts 346°
2026-04-21 13:52 47.23676 -0.79978 30060 ft 279 kts 346°
2026-04-21 13:52 47.25603 -0.80314 30059 ft 278 kts 346°
2026-04-21 13:52 47.27525 -0.80647 30058 ft 279 kts 346°
2026-04-21 13:53 47.29456 -0.80979 30059 ft 280 kts 346°
2026-04-21 13:53 47.31390 -0.81315 30062 ft 280 kts 346°
2026-04-21 13:53 47.33328 -0.81649 30064 ft 281 kts 346°
2026-04-21 13:53 47.35271 -0.81987 30063 ft 282 kts 346°
2026-04-21 13:54 47.37220 -0.82323 30064 ft 282 kts 346°
2026-04-21 13:54 47.39170 -0.82662 30066 ft 283 kts 346°
2026-04-21 13:54 47.41125 -0.83000 30068 ft 283 kts 346°
2026-04-21 13:54 47.43084 -0.83338 30050 ft 284 kts 346°
2026-04-21 13:55 47.45051 -0.83682 30051 ft 285 kts 346°
2026-04-21 13:55 47.47012 -0.84020 30054 ft 283 kts 346°
2026-04-21 13:55 47.48968 -0.84360 30053 ft 282 kts 346°
2026-04-21 13:55 47.50914 -0.84698 30052 ft 281 kts 346°
2026-04-21 13:56 47.52856 -0.85036 30054 ft 281 kts 346°
2026-04-21 13:56 47.54775 -0.85456 30051 ft 278 kts 342°
2026-04-21 13:56 47.56685 -0.85975 30055 ft 280 kts 342°
2026-04-21 13:56 47.58607 -0.86486 30057 ft 281 kts 342°
2026-04-21 13:57 47.60538 -0.86994 30070 ft 282 kts 342°
2026-04-21 13:57 47.62443 -0.87496 30071 ft 281 kts 342°
2026-04-21 13:57 47.64390 -0.88012 30078 ft 280 kts 342°
2026-04-21 13:57 47.66303 -0.88522 30077 ft 279 kts 342°
2026-04-21 13:58 47.68214 -0.89028 30076 ft 278 kts 342°
2026-04-21 13:58 47.70117 -0.89532 30075 ft 278 kts 342°
2026-04-21 13:58 47.72018 -0.90038 30080 ft 278 kts 342°
2026-04-21 13:58 47.73926 -0.90546 30081 ft 279 kts 342°
2026-04-21 13:59 47.75839 -0.91053 30082 ft 280 kts 342°
2026-04-21 13:59 47.77732 -0.91558 30083 ft 281 kts 342°
2026-04-21 13:59 47.79680 -0.92075 30083 ft 281 kts 342°
2026-04-21 13:59 47.81587 -0.92583 30099 ft 283 kts 342°
2026-04-21 14:00 47.83522 -0.93100 30099 ft 282 kts 342°
2026-04-21 14:00 47.85449 -0.93613 30099 ft 281 kts 342°
2026-04-21 14:00 47.87368 -0.94129 30091 ft 280 kts 342°
2026-04-21 14:00 47.89283 -0.94640 30099 ft 279 kts 342°
2026-04-21 14:01 47.91196 -0.95151 30098 ft 279 kts 342°
2026-04-21 14:01 47.93104 -0.95665 30098 ft 279 kts 342°
2026-04-21 14:01 47.95017 -0.96178 30098 ft 279 kts 342°
2026-04-21 14:01 47.96928 -0.96691 30104 ft 279 kts 342°
2026-04-21 14:02 47.98845 -0.97206 30104 ft 280 kts 342°
2026-04-21 14:02 48.00762 -0.97719 30105 ft 280 kts 342°
2026-04-21 14:02 48.02681 -0.98235 30105 ft 280 kts 342°
2026-04-21 14:03 48.06519 -0.99266 30108 ft 280 kts 342°
2026-04-21 14:03 48.08436 -0.99784 30109 ft 280 kts 342°
2026-04-21 14:03 48.10357 -1.00300 30108 ft 280 kts 342°
2026-04-21 14:03 48.12274 -1.00817 30108 ft 280 kts 342°
2026-04-21 14:04 48.14189 -1.01336 30111 ft 280 kts 342°
2026-04-21 14:04 48.16106 -1.01854 30111 ft 280 kts 342°
2026-04-21 14:04 48.18021 -1.02371 30111 ft 280 kts 342°
2026-04-21 14:04 48.19936 -1.02890 30106 ft 280 kts 342°
2026-04-21 14:05 48.21850 -1.03411 30108 ft 280 kts 342°
2026-04-21 14:05 48.23768 -1.03931 30113 ft 279 kts 342°
2026-04-21 14:05 48.25673 -1.04446 30112 ft 277 kts 342°
2026-04-21 14:05 48.27566 -1.04962 30110 ft 277 kts 342°
2026-04-21 14:06 48.29462 -1.05477 30108 ft 278 kts 342°
2026-04-21 14:06 48.31364 -1.05993 30112 ft 278 kts 342°
2026-04-21 14:06 48.33274 -1.06513 30113 ft 279 kts 342°
2026-04-21 14:06 48.35186 -1.07033 30113 ft 280 kts 342°
2026-04-21 14:07 48.37106 -1.07557 30116 ft 280 kts 342°
2026-04-21 14:07 48.39024 -1.08079 30116 ft 280 kts 342°
2026-04-21 14:07 48.40945 -1.08604 30116 ft 281 kts 342°
2026-04-21 14:07 48.42865 -1.09127 30116 ft 281 kts 342°
2026-04-21 14:08 48.44782 -1.09652 30121 ft 278 kts 342°
2026-04-21 14:08 48.46679 -1.10168 30117 ft 276 kts 342°
2026-04-21 14:08 48.48563 -1.10687 30120 ft 275 kts 341°
2026-04-21 14:08 48.50447 -1.11205 30120 ft 275 kts 342°
2026-04-21 14:09 48.52333 -1.11723 30114 ft 276 kts 342°
2026-04-21 14:09 48.54221 -1.12241 30115 ft 276 kts 342°
2026-04-21 14:09 48.56110 -1.12759 30123 ft 276 kts 342°
2026-04-21 14:09 48.57999 -1.13280 30124 ft 276 kts 342°
2026-04-21 14:10 48.59893 -1.13800 30128 ft 277 kts 342°
2026-04-21 14:10 48.61788 -1.14319 30127 ft 277 kts 342°
2026-04-21 14:10 48.63684 -1.14841 30128 ft 277 kts 342°
2026-04-21 14:10 48.65582 -1.15366 30135 ft 277 kts 341°
2026-04-21 14:11 48.67465 -1.15882 30134 ft 274 kts 341°
2026-04-21 14:11 48.69329 -1.16397 30131 ft 272 kts 341°
2026-04-21 14:11 48.71195 -1.16916 30131 ft 273 kts 341°
2026-04-21 14:11 48.73064 -1.17431 30130 ft 274 kts 341°
2026-04-21 14:12 48.74914 -1.17944 30142 ft 274 kts 341°
2026-04-21 14:12 48.76790 -1.18464 30142 ft 274 kts 341°
2026-04-21 14:12 48.78671 -1.18983 30141 ft 275 kts 341°
2026-04-21 14:12 48.80550 -1.19505 30142 ft 275 kts 341°
2026-04-21 14:13 48.82429 -1.20031 30145 ft 275 kts 341°
2026-04-21 14:13 48.84314 -1.20553 30145 ft 276 kts 341°
2026-04-21 14:13 48.86201 -1.21077 30147 ft 276 kts 341°
2026-04-21 14:13 48.88091 -1.21603 30146 ft 276 kts 341°
2026-04-21 14:14 48.89986 -1.22130 30153 ft 277 kts 341°
2026-04-21 14:14 48.91879 -1.22659 30158 ft 277 kts 341°
2026-04-21 14:14 48.93775 -1.23185 30158 ft 277 kts 341°
2026-04-21 14:14 48.95670 -1.23711 30159 ft 277 kts 341°
2026-04-21 14:15 48.97561 -1.24242 30155 ft 276 kts 341°
2026-04-21 14:15 48.99440 -1.24764 30154 ft 274 kts 341°
2026-04-21 14:15 49.01318 -1.25290 30154 ft 273 kts 341°
2026-04-21 14:15 49.03185 -1.25815 30153 ft 272 kts 341°
2026-04-21 14:16 49.05046 -1.26336 30155 ft 272 kts 341°
2026-04-21 14:16 49.06909 -1.26860 30155 ft 273 kts 341°
2026-04-21 14:16 49.08777 -1.27385 30169 ft 272 kts 341°
2026-04-21 14:16 49.10630 -1.27902 30159 ft 270 kts 341°
2026-04-21 14:17 49.12475 -1.28419 30167 ft 269 kts 341°
2026-04-21 14:17 49.14318 -1.28943 30159 ft 270 kts 341°
2026-04-21 14:17 49.16161 -1.29461 30167 ft 270 kts 341°
2026-04-21 14:17 49.18012 -1.29979 30178 ft 270 kts 341°
2026-04-21 14:18 49.19857 -1.30501 30176 ft 270 kts 341°
2026-04-21 14:18 49.21704 -1.31022 30176 ft 270 kts 341°
2026-04-21 14:18 49.23554 -1.31543 30171 ft 270 kts 341°
2026-04-21 14:18 49.25401 -1.32065 30184 ft 270 kts 341°
2026-04-21 14:19 49.27252 -1.32587 30179 ft 270 kts 341°
2026-04-21 14:19 49.29103 -1.33109 30185 ft 270 kts 341°
2026-04-21 14:19 49.30959 -1.33635 30174 ft 273 kts 341°
2026-04-21 14:19 49.32830 -1.34169 30168 ft 275 kts 341°
2026-04-21 14:20 49.34716 -1.34704 30178 ft 277 kts 341°
2026-04-21 14:20 49.36615 -1.35243 30189 ft 278 kts 341°
2026-04-21 14:20 49.38512 -1.35779 30189 ft 277 kts 341°
2026-04-21 14:20 49.40402 -1.36319 30187 ft 276 kts 341°
2026-04-21 14:21 49.42290 -1.36856 30188 ft 276 kts 341°
2026-04-21 14:21 49.44176 -1.37392 30202 ft 275 kts 341°
2026-04-21 14:21 49.46058 -1.37929 30203 ft 275 kts 341°
2026-04-21 14:21 49.47940 -1.38464 30205 ft 275 kts 341°
2026-04-21 14:22 49.49820 -1.39001 30206 ft 274 kts 341°
2026-04-21 14:22 49.51696 -1.39537 30231 ft 274 kts 341°
2026-04-21 14:22 49.53570 -1.40071 30216 ft 272 kts 341°
2026-04-21 14:22 49.55426 -1.40598 30215 ft 270 kts 341°
2026-04-21 14:23 49.57280 -1.41132 30209 ft 271 kts 341°
2026-04-21 14:23 49.59133 -1.41555 30213 ft 277 kts 347°
2026-04-21 14:23 49.61081 -1.41501 30213 ft 283 kts 354°
2026-04-21 14:23 49.63046 -1.41311 30213 ft 283 kts 354°
2026-04-21 14:24 49.65011 -1.41149 30214 ft 283 kts 354°
2026-04-21 14:24 49.66983 -1.40980 30215 ft 284 kts 354°
2026-04-21 14:24 49.68957 -1.40803 30215 ft 285 kts 354°
2026-04-21 14:24 49.70935 -1.40630 30216 ft 285 kts 354°
2026-04-21 14:25 49.72915 -1.40454 30216 ft 285 kts 354°
2026-04-21 14:25 49.74897 -1.40278 30217 ft 284 kts 354°
2026-04-21 14:25 49.76851 -1.40100 30215 ft 280 kts 354°
2026-04-21 14:25 49.78792 -1.39931 30214 ft 279 kts 354°
2026-04-21 14:26 49.80735 -1.39761 30216 ft 280 kts 354°
2026-04-21 14:26 49.82678 -1.39587 30216 ft 280 kts 354°
2026-04-21 14:26 49.84622 -1.39413 30216 ft 280 kts 354°
2026-04-21 14:26 49.86567 -1.39240 30217 ft 280 kts 354°
2026-04-21 14:27 49.88515 -1.39067 30223 ft 280 kts 354°
2026-04-21 14:27 49.90463 -1.38893 30224 ft 280 kts 354°
2026-04-21 14:27 49.92410 -1.38722 30228 ft 281 kts 354°
2026-04-21 14:27 49.94359 -1.38549 30228 ft 281 kts 354°
2026-04-21 14:28 49.96310 -1.38374 30255 ft 281 kts 354°
2026-04-21 14:28 49.98261 -1.38200 30234 ft 280 kts 354°
2026-04-21 14:28 50.00207 -1.37995 30232 ft 282 kts 356°
2026-04-21 14:28 50.02150 -1.37501 30230 ft 283 kts 360°
2026-04-21 14:29 50.04094 -1.37021 30224 ft 283 kts 359°
2026-04-21 14:29 50.06045 -1.36553 30235 ft 283 kts 359°
2026-04-21 14:29 50.07974 -1.36068 30236 ft 280 kts 359°
2026-04-21 14:29 50.09250 -1.35747 30234 ft 280 kts 359°
2026-04-21 14:30 50.11176 -1.35273 30236 ft 280 kts 359°
2026-04-21 14:30 50.13103 -1.34793 30236 ft 281 kts 359°
2026-04-21 14:30 50.15034 -1.34311 30240 ft 281 kts 359°
2026-04-21 14:30 50.16965 -1.33830 30240 ft 281 kts 359°
2026-04-21 14:31 50.18899 -1.33346 30254 ft 282 kts 359°
2026-04-21 14:31 50.20836 -1.32864 30240 ft 282 kts 359°
2026-04-21 14:31 50.22776 -1.32381 30242 ft 282 kts 359°
2026-04-21 14:31 50.24716 -1.31895 30248 ft 282 kts 359°
2026-04-21 14:32 50.26656 -1.31410 30243 ft 282 kts 359°
2026-04-21 14:32 50.28595 -1.30926 30244 ft 282 kts 359°
2026-04-21 14:32 50.30535 -1.30438 30245 ft 282 kts 359°
2026-04-21 14:32 50.32475 -1.29953 30253 ft 282 kts 359°
2026-04-21 14:33 50.34416 -1.29467 30249 ft 282 kts 359°
2026-04-21 14:33 50.36354 -1.28978 30253 ft 282 kts 359°
2026-04-21 14:33 50.38295 -1.28488 30253 ft 282 kts 359°
2026-04-21 14:33 50.40209 -1.28008 30250 ft 282 kts 359°
2026-04-21 14:34 50.42176 -1.27512 30249 ft 283 kts 359°
2026-04-21 14:34 50.44080 -1.27030 30250 ft 280 kts 359°
2026-04-21 14:34 50.46016 -1.26539 30248 ft 278 kts 359°
2026-04-21 14:34 50.47901 -1.26067 30246 ft 278 kts 359°
2026-04-21 14:35 50.49812 -1.25645 30244 ft 274 kts 355°
2026-04-21 14:35 50.51693 -1.25684 30246 ft 267 kts 346°
2026-04-21 14:35 50.53541 -1.25988 30247 ft 267 kts 345°
2026-04-21 14:35 50.55394 -1.26267 30246 ft 268 kts 346°
2026-04-21 14:36 50.57250 -1.26548 30248 ft 268 kts 346°
2026-04-21 14:36 50.59110 -1.26836 30250 ft 269 kts 346°
2026-04-21 14:36 50.60971 -1.27126 30253 ft 269 kts 346°
2026-04-21 14:36 50.62835 -1.27415 30254 ft 270 kts 346°
2026-04-21 14:37 50.64703 -1.27701 30266 ft 270 kts 346°
2026-04-21 14:37 50.66569 -1.27989 30259 ft 268 kts 346°
2026-04-21 14:37 50.68415 -1.28275 30261 ft 266 kts 346°
2026-04-21 14:37 50.70255 -1.28559 30262 ft 265 kts 346°
2026-04-21 14:38 50.72094 -1.28847 30261 ft 266 kts 346°
2026-04-21 14:38 50.73937 -1.29132 30262 ft 266 kts 346°
2026-04-21 14:38 50.75781 -1.29417 30263 ft 266 kts 346°
2026-04-21 14:38 50.77624 -1.29704 30264 ft 266 kts 346°
2026-04-21 14:39 50.79469 -1.29991 30266 ft 266 kts 346°
2026-04-21 14:39 50.81314 -1.30281 30268 ft 267 kts 346°
2026-04-21 14:39 50.83162 -1.30569 30269 ft 267 kts 346°
2026-04-21 14:39 50.85012 -1.30857 30269 ft 267 kts 346°
2026-04-21 14:40 50.86864 -1.31148 30270 ft 267 kts 346°
2026-04-21 14:40 50.88716 -1.31436 30272 ft 268 kts 346°
2026-04-21 14:40 50.90568 -1.31726 30271 ft 267 kts 346°
2026-04-21 14:40 50.92419 -1.32018 30272 ft 267 kts 346°
2026-04-21 14:41 50.94271 -1.32308 30273 ft 268 kts 346°
2026-04-21 14:41 50.96124 -1.32596 30274 ft 268 kts 346°
2026-04-21 14:41 50.97979 -1.32888 30273 ft 268 kts 346°
2026-04-21 14:41 50.99832 -1.33178 30274 ft 268 kts 346°
2026-04-21 14:42 51.01685 -1.33469 30270 ft 268 kts 346°
2026-04-21 14:42 51.03538 -1.33760 30270 ft 267 kts 346°
2026-04-21 14:42 51.05390 -1.34051 30269 ft 267 kts 346°
2026-04-21 14:42 51.07240 -1.34343 30268 ft 267 kts 346°
2026-04-21 14:43 51.09087 -1.34635 30269 ft 267 kts 346°
2026-04-21 14:43 51.10939 -1.34927 30269 ft 267 kts 346°
2026-04-21 14:43 51.12763 -1.35217 30269 ft 267 kts 346°
2026-04-21 14:43 51.14612 -1.35508 30269 ft 267 kts 346°
2026-04-21 14:44 51.16463 -1.35803 30269 ft 267 kts 346°
2026-04-21 14:44 51.18313 -1.36094 30269 ft 267 kts 346°
2026-04-21 14:44 51.20162 -1.36388 30270 ft 267 kts 346°
2026-04-21 14:44 51.22015 -1.36683 30268 ft 267 kts 346°
2026-04-21 14:45 51.23865 -1.36973 30270 ft 267 kts 346°
2026-04-21 14:45 51.25717 -1.37268 30269 ft 267 kts 346°
2026-04-21 14:45 51.27567 -1.37562 30269 ft 267 kts 346°
2026-04-21 14:45 51.29418 -1.37858 30269 ft 267 kts 346°
2026-04-21 14:46 51.31268 -1.38150 30267 ft 267 kts 346°
2026-04-21 14:46 51.33116 -1.38446 30288 ft 267 kts 346°
2026-04-21 14:46 51.34954 -1.38735 30273 ft 263 kts 346°
2026-04-21 14:46 51.36768 -1.39026 30271 ft 262 kts 346°
2026-04-21 14:47 51.38582 -1.39318 30272 ft 262 kts 346°
2026-04-21 14:47 51.40392 -1.39609 30274 ft 262 kts 346°
2026-04-21 14:47 51.42204 -1.39898 30275 ft 262 kts 346°
2026-04-21 14:47 51.44017 -1.40189 30281 ft 262 kts 346°
2026-04-21 14:48 51.45832 -1.40479 30282 ft 262 kts 346°
2026-04-21 14:48 51.47646 -1.40772 30282 ft 262 kts 346°
2026-04-21 14:48 51.49464 -1.41064 30283 ft 262 kts 346°
2026-04-21 14:48 51.51280 -1.41354 30284 ft 263 kts 346°
2026-04-21 14:49 51.53100 -1.41646 30290 ft 263 kts 346°
2026-04-21 14:49 51.54923 -1.41939 30290 ft 263 kts 346°
2026-04-21 14:49 51.56746 -1.42232 30306 ft 263 kts 346°
2026-04-21 14:49 51.58561 -1.42523 30294 ft 260 kts 346°
2026-04-21 14:50 51.59750 -1.42713 30292 ft 259 kts 346°
2026-04-21 14:50 51.62148 -1.43104 30292 ft 260 kts 345°
2026-04-21 14:50 51.63948 -1.43395 30293 ft 260 kts 346°
2026-04-21 14:50 51.65752 -1.43684 30294 ft 261 kts 346°
2026-04-21 14:51 51.67555 -1.43978 30291 ft 261 kts 346°
2026-04-21 14:51 51.69364 -1.44270 30292 ft 261 kts 346°
2026-04-21 14:51 51.71175 -1.44566 30293 ft 262 kts 346°
2026-04-21 14:51 51.72987 -1.44859 30293 ft 262 kts 346°
2026-04-21 14:52 51.74804 -1.45155 30297 ft 262 kts 346°
2026-04-21 14:52 51.76621 -1.45451 30288 ft 263 kts 346°
2026-04-21 14:52 51.78445 -1.45747 30286 ft 264 kts 346°
2026-04-21 14:52 51.80281 -1.46048 30314 ft 266 kts 346°
2026-04-21 14:53 51.82109 -1.46340 30299 ft 261 kts 345°
2026-04-21 14:53 51.83911 -1.46633 30295 ft 260 kts 345°
2026-04-21 14:53 51.85714 -1.46928 30295 ft 260 kts 345°
2026-04-21 14:53 51.87513 -1.47222 30296 ft 260 kts 345°
2026-04-21 14:54 51.89317 -1.47516 30293 ft 260 kts 345°
2026-04-21 14:54 51.91121 -1.47810 30293 ft 260 kts 345°
2026-04-21 14:54 51.92924 -1.48105 30294 ft 260 kts 345°
2026-04-21 14:54 51.94724 -1.48401 30295 ft 260 kts 345°
2026-04-21 14:55 51.96526 -1.48698 30300 ft 260 kts 345°
2026-04-21 14:55 51.98327 -1.48992 30300 ft 260 kts 345°
2026-04-21 14:55 52.00105 -1.49286 30303 ft 260 kts 345°
2026-04-21 14:55 52.01907 -1.49581 30307 ft 261 kts 345°
2026-04-21 14:56 52.03716 -1.49880 30389 ft 261 kts 345°
2026-04-21 14:56 52.05520 -1.50175 30384 ft 260 kts 345°
2026-04-21 14:56 52.07313 -1.50471 30386 ft 258 kts 345°
2026-04-21 14:56 52.09092 -1.50764 30390 ft 257 kts 345°
2026-04-21 14:57 52.10876 -1.51058 30390 ft 258 kts 345°
2026-04-21 14:57 52.12664 -1.51353 30393 ft 258 kts 345°
2026-04-21 14:57 52.14455 -1.51648 30396 ft 259 kts 345°
2026-04-21 14:57 52.16244 -1.51944 30397 ft 259 kts 345°
2026-04-21 14:58 52.18037 -1.52242 30404 ft 259 kts 345°
2026-04-21 14:58 52.19830 -1.52536 30404 ft 259 kts 345°
2026-04-21 14:58 52.21625 -1.52835 30403 ft 260 kts 345°
2026-04-21 14:58 52.23423 -1.53133 30401 ft 260 kts 345°
2026-04-21 14:59 52.25221 -1.53432 30395 ft 260 kts 345°
2026-04-21 14:59 52.27017 -1.53733 30393 ft 260 kts 345°
2026-04-21 14:59 52.28809 -1.54028 30397 ft 257 kts 345°
2026-04-21 14:59 52.30576 -1.54321 30391 ft 254 kts 345°
2026-04-21 15:00 52.32334 -1.54618 30383 ft 254 kts 345°
2026-04-21 15:00 52.34093 -1.54912 30343 ft 254 kts 345°
2026-04-21 15:00 52.35853 -1.55204 30345 ft 254 kts 345°
2026-04-21 15:00 52.37614 -1.55498 30348 ft 255 kts 345°
2026-04-21 15:01 52.39378 -1.55793 30349 ft 255 kts 345°
2026-04-21 15:01 52.41143 -1.56086 30349 ft 255 kts 345°
2026-04-21 15:01 52.42907 -1.56382 30349 ft 255 kts 345°
2026-04-21 15:01 52.44672 -1.56678 30349 ft 255 kts 345°
2026-04-21 15:02 52.46440 -1.56972 30346 ft 255 kts 345°
2026-04-21 15:02 52.48204 -1.57268 30347 ft 255 kts 345°
2026-04-21 15:02 52.49974 -1.57568 30348 ft 256 kts 345°
2026-04-21 15:02 52.51743 -1.57864 30365 ft 256 kts 344°
2026-04-21 15:03 52.53505 -1.58158 30352 ft 253 kts 344°
2026-04-21 15:03 52.55254 -1.58454 30351 ft 252 kts 344°
2026-04-21 15:03 52.56997 -1.58749 30264 ft 252 kts 344°
2026-04-21 15:03 52.58743 -1.59044 30261 ft 252 kts 344°
2026-04-21 15:04 52.60493 -1.59341 30258 ft 253 kts 344°
2026-04-21 15:04 52.62244 -1.59637 30258 ft 253 kts 344°
2026-04-21 15:04 52.63888 -1.59914 30259 ft 253 kts 344°
2026-04-21 15:04 52.65643 -1.60209 30261 ft 253 kts 344°
2026-04-21 15:05 52.67396 -1.60505 30260 ft 253 kts 344°
2026-04-21 15:05 52.70906 -1.61099 30270 ft 254 kts 344°
2026-04-21 15:05 52.72663 -1.61398 30274 ft 254 kts 344°
2026-04-21 15:06 52.74421 -1.61696 30377 ft 254 kts 344°
2026-04-21 15:06 52.76180 -1.61995 30380 ft 255 kts 344°
2026-04-21 15:06 52.77950 -1.62298 30377 ft 256 kts 344°
2026-04-21 15:06 52.79722 -1.62600 30378 ft 256 kts 344°
2026-04-21 15:07 52.81494 -1.62900 30374 ft 256 kts 344°
2026-04-21 15:07 52.83271 -1.63204 30374 ft 256 kts 344°
2026-04-21 15:07 52.85044 -1.63508 30374 ft 257 kts 344°
2026-04-21 15:07 52.86820 -1.63810 30375 ft 257 kts 344°
2026-04-21 15:08 52.88598 -1.64116 30376 ft 257 kts 344°
2026-04-21 15:08 52.90376 -1.64419 30376 ft 257 kts 344°
2026-04-21 15:08 52.92147 -1.64719 30375 ft 255 kts 344°
2026-04-21 15:08 52.93911 -1.65023 30375 ft 255 kts 344°
2026-04-21 15:09 52.95670 -1.65323 30380 ft 254 kts 344°
2026-04-21 15:09 52.97425 -1.65624 30380 ft 253 kts 344°
2026-04-21 15:09 52.99172 -1.65924 30380 ft 252 kts 344°
2026-04-21 15:09 53.00922 -1.66226 30380 ft 255 kts 345°
2026-04-21 15:10 53.02698 -1.66535 30378 ft 258 kts 346°
2026-04-21 15:10 53.04488 -1.66855 30380 ft 258 kts 344°
2026-04-21 15:10 53.06221 -1.67525 30385 ft 255 kts 336°
2026-04-21 15:10 53.07880 -1.68540 30387 ft 254 kts 333°
2026-04-21 15:11 53.09546 -1.69571 30390 ft 257 kts 333°
2026-04-21 15:11 53.11220 -1.70596 30391 ft 255 kts 333°
2026-04-21 15:11 53.12881 -1.71623 30389 ft 254 kts 333°
2026-04-21 15:11 53.14535 -1.72650 30391 ft 253 kts 333°
2026-04-21 15:12 53.16180 -1.73674 30394 ft 252 kts 333°
2026-04-21 15:12 53.17821 -1.74692 30394 ft 252 kts 333°
2026-04-21 15:12 53.19471 -1.75717 30395 ft 253 kts 333°
2026-04-21 15:12 53.21122 -1.76744 30395 ft 254 kts 333°
2026-04-21 15:13 53.22218 -1.77426 30395 ft 254 kts 333°
2026-04-21 15:13 53.24436 -1.78808 30399 ft 256 kts 334°
2026-04-21 15:13 53.26117 -1.79856 30389 ft 260 kts 335°
2026-04-21 15:13 53.27820 -1.80918 30392 ft 262 kts 335°
2026-04-21 15:14 53.29541 -1.81990 30398 ft 265 kts 335°
2026-04-21 15:14 53.31274 -1.83076 30399 ft 267 kts 335°
2026-04-21 15:14 53.33017 -1.84166 30402 ft 269 kts 335°
2026-04-21 15:14 53.34773 -1.85265 30402 ft 270 kts 335°
2026-04-21 15:15 53.36526 -1.86364 30401 ft 268 kts 335°
2026-04-21 15:15 53.38272 -1.87461 30400 ft 267 kts 335°
2026-04-21 15:15 53.40009 -1.88551 30390 ft 267 kts 335°
2026-04-21 15:15 53.41748 -1.89645 30390 ft 267 kts 335°
2026-04-21 15:16 53.43483 -1.90737 30393 ft 266 kts 335°
2026-04-21 15:16 53.45220 -1.91828 30403 ft 266 kts 335°
2026-04-21 15:16 53.46953 -1.92918 30403 ft 266 kts 335°
2026-04-21 15:16 53.48097 -1.93642 30403 ft 266 kts 335°
2026-04-21 15:17 53.49831 -1.94736 30402 ft 266 kts 335°
2026-04-21 15:17 53.51559 -1.95827 30403 ft 266 kts 335°
2026-04-21 15:17 53.53291 -1.96919 30407 ft 266 kts 335°
2026-04-21 15:17 53.55018 -1.98016 30405 ft 264 kts 334°
2026-04-21 15:18 53.56749 -1.99114 30408 ft 267 kts 335°
2026-04-21 15:18 53.58495 -2.00214 30409 ft 269 kts 335°
2026-04-21 15:18 53.60245 -2.01324 30409 ft 269 kts 335°
2026-04-21 15:18 53.61993 -2.02437 30406 ft 268 kts 334°
2026-04-21 15:19 53.63730 -2.03542 30404 ft 266 kts 334°
2026-04-21 15:19 53.65461 -2.04643 30404 ft 265 kts 334°
2026-04-21 15:19 53.67189 -2.05742 30403 ft 265 kts 334°
2026-04-21 15:19 53.68911 -2.06840 30402 ft 265 kts 334°
2026-04-21 15:20 53.70637 -2.07940 30396 ft 266 kts 334°
2026-04-21 15:20 53.72338 -2.09019 30401 ft 254 kts 333°
2026-04-21 15:20 53.74003 -2.10085 30390 ft 259 kts 333°
2026-04-21 15:20 53.75677 -2.11215 30391 ft 260 kts 333°
2026-04-21 15:21 53.77364 -2.12361 30393 ft 263 kts 333°
2026-04-21 15:21 53.79066 -2.13517 30397 ft 265 kts 333°
2026-04-21 15:21 53.80782 -2.14687 30400 ft 267 kts 333°
2026-04-21 15:21 53.82509 -2.15864 30400 ft 269 kts 333°
2026-04-21 15:22 53.84242 -2.17048 30405 ft 268 kts 333°
2026-04-21 15:22 53.85969 -2.18229 30401 ft 267 kts 333°
2026-04-21 15:22 53.87691 -2.19408 30400 ft 267 kts 333°
2026-04-21 15:22 53.89412 -2.20584 30400 ft 266 kts 333°
2026-04-21 15:23 53.91129 -2.21760 30393 ft 266 kts 333°
2026-04-21 15:23 53.92842 -2.22937 30399 ft 266 kts 333°
2026-04-21 15:23 53.94557 -2.24114 30399 ft 265 kts 333°
2026-04-21 15:23 53.96244 -2.25273 30399 ft 265 kts 333°
2026-04-21 15:24 53.97954 -2.26447 30406 ft 266 kts 333°
2026-04-21 15:24 53.99678 -2.27634 30404 ft 269 kts 333°
2026-04-21 15:24 54.01419 -2.28832 30406 ft 271 kts 333°
2026-04-21 15:24 54.03174 -2.30042 30413 ft 273 kts 333°
2026-04-21 15:25 54.04939 -2.31258 30412 ft 275 kts 333°
2026-04-21 15:25 54.06715 -2.32484 30405 ft 276 kts 333°
2026-04-21 15:25 54.08490 -2.33712 30404 ft 275 kts 333°
2026-04-21 15:25 54.10264 -2.34937 30403 ft 275 kts 333°
2026-04-21 15:26 54.12032 -2.36163 30401 ft 274 kts 333°
2026-04-21 15:26 54.13796 -2.37385 30410 ft 274 kts 333°
2026-04-21 15:26 54.15560 -2.38609 30409 ft 273 kts 333°
2026-04-21 15:26 54.17319 -2.39832 30411 ft 273 kts 333°
2026-04-21 15:27 54.19081 -2.41057 30409 ft 273 kts 333°
2026-04-21 15:27 54.20841 -2.42280 30408 ft 273 kts 333°
2026-04-21 15:27 54.22596 -2.43503 30418 ft 273 kts 334°
2026-04-21 15:27 54.24359 -2.44735 30412 ft 274 kts 333°
2026-04-21 15:28 54.26131 -2.45970 30413 ft 277 kts 334°
2026-04-21 15:28 54.27903 -2.47206 30418 ft 273 kts 334°
2026-04-21 15:28 54.29667 -2.48434 30419 ft 272 kts 333°
2026-04-21 15:28 54.31412 -2.49653 30416 ft 272 kts 334°
2026-04-21 15:29 54.33170 -2.50891 30423 ft 272 kts 334°
2026-04-21 15:29 54.34932 -2.52127 30423 ft 274 kts 334°
2026-04-21 15:29 54.36695 -2.53358 30428 ft 272 kts 333°
2026-04-21 15:29 54.38453 -2.54593 30427 ft 273 kts 333°
2026-04-21 15:30 54.40202 -2.55822 30422 ft 272 kts 333°
2026-04-21 15:30 54.41956 -2.57057 30420 ft 272 kts 333°
2026-04-21 15:30 54.43717 -2.58298 30428 ft 275 kts 333°
2026-04-21 15:30 54.45487 -2.59547 30432 ft 274 kts 334°
2026-04-21 15:31 54.47249 -2.60789 30435 ft 273 kts 334°
2026-04-21 15:31 54.49014 -2.62035 30424 ft 276 kts 334°
2026-04-21 15:31 54.50801 -2.63300 30427 ft 278 kts 334°
2026-04-21 15:31 54.52600 -2.64572 30434 ft 281 kts 335°
2026-04-21 15:32 54.54412 -2.65853 30441 ft 280 kts 335°
2026-04-21 15:32 54.56218 -2.67132 30442 ft 281 kts 334°
2026-04-21 15:32 54.58007 -2.68400 30434 ft 279 kts 334°
2026-04-21 15:32 54.59796 -2.69675 30428 ft 275 kts 333°
2026-04-21 15:33 54.61569 -2.70934 30424 ft 277 kts 334°
2026-04-21 15:33 54.63357 -2.72203 30435 ft 278 kts 333°
2026-04-21 15:33 54.65146 -2.73476 30435 ft 278 kts 333°
2026-04-21 15:33 54.66933 -2.74751 30437 ft 277 kts 333°
2026-04-21 15:34 54.68703 -2.76017 30269 ft 281 kts 333°
2026-04-21 15:34 54.70498 -2.77297 29914 ft 279 kts 334°
2026-04-21 15:34 54.72320 -2.78599 29559 ft 279 kts 334°
2026-04-21 15:34 54.74120 -2.79893 29186 ft 290 kts 334°
2026-04-21 15:35 54.75987 -2.81230 28809 ft 290 kts 335°
2026-04-21 15:35 54.77850 -2.82565 28419 ft 291 kts 335°
2026-04-21 15:35 54.79726 -2.83910 28035 ft 293 kts 336°
2026-04-21 15:35 54.81624 -2.85273 27648 ft 297 kts 336°
2026-04-21 15:36 54.83538 -2.86649 27259 ft 299 kts 336°
2026-04-21 15:36 54.85470 -2.88041 26867 ft 302 kts 337°
2026-04-21 15:36 54.87415 -2.89441 26464 ft 304 kts 337°
2026-04-21 15:36 54.89380 -2.90857 25888 ft 308 kts 338°
2026-04-21 15:37 54.91352 -2.92282 25291 ft 307 kts 338°
2026-04-21 15:37 54.93329 -2.93715 24701 ft 309 kts 339°
2026-04-21 15:37 54.95349 -2.95172 24095 ft 317 kts 340°
2026-04-21 15:37 54.97374 -2.96632 23424 ft 314 kts 339°
2026-04-21 15:38 54.99370 -2.98084 22827 ft 310 kts 340°
2026-04-21 15:38 55.01382 -2.99549 22221 ft 317 kts 340°
2026-04-21 15:38 55.03442 -3.01041 21610 ft 317 kts 341°
2026-04-21 15:38 55.05458 -3.02509 20997 ft 318 kts 340°
2026-04-21 15:39 55.07496 -3.03993 20376 ft 317 kts 340°
2026-04-21 15:39 55.09513 -3.05468 19767 ft 314 kts 340°
2026-04-21 15:39 55.11546 -3.06964 19154 ft 318 kts 340°
2026-04-21 15:39 55.13591 -3.08455 18508 ft 319 kts 340°
2026-04-21 15:40 55.15639 -3.09945 17876 ft 319 kts 341°
2026-04-21 15:40 55.17686 -3.11441 17257 ft 319 kts 340°
2026-04-21 15:40 55.19723 -3.12940 16641 ft 317 kts 341°
2026-04-21 15:40 55.21748 -3.14438 16027 ft 315 kts 341°
2026-04-21 15:41 55.23771 -3.15921 15422 ft 313 kts 341°
2026-04-21 15:41 55.25763 -3.17377 14819 ft 310 kts 341°
2026-04-21 15:41 55.27739 -3.18836 14216 ft 306 kts 341°
2026-04-21 15:41 55.29692 -3.20282 13601 ft 304 kts 340°
2026-04-21 15:42 55.31634 -3.21712 13012 ft 302 kts 341°
2026-04-21 15:42 55.33562 -3.23135 12436 ft 300 kts 341°
2026-04-21 15:42 55.35476 -3.24555 11860 ft 298 kts 341°
2026-04-21 15:42 55.37370 -3.25959 11284 ft 292 kts 340°
2026-04-21 15:43 55.39255 -3.27358 10718 ft 294 kts 340°
2026-04-21 15:43 55.41131 -3.28750 10112 ft 292 kts 341°
2026-04-21 15:43 55.42987 -3.30117 9560 ft 289 kts 341°
2026-04-21 15:43 55.44833 -3.31491 9006 ft 288 kts 341°
2026-04-21 15:44 55.46659 -3.32862 8451 ft 284 kts 341°
2026-04-21 15:44 55.48482 -3.34213 7887 ft 284 kts 341°
2026-04-21 15:44 55.50221 -3.35799 7489 ft 283 kts 328°
2026-04-21 15:44 55.51766 -3.38024 7447 ft 286 kts 322°
2026-04-21 15:45 55.53284 -3.40288 7368 ft 285 kts 322°
2026-04-21 15:45 55.54796 -3.42531 7246 ft 286 kts 323°
2026-04-21 15:45 55.56306 -3.44772 7099 ft 280 kts 322°
2026-04-21 15:45 55.57734 -3.46900 6948 ft 258 kts 323°
2026-04-21 15:46 55.59079 -3.48909 6797 ft 247 kts 323°
2026-04-21 15:46 55.60391 -3.50861 6649 ft 246 kts 323°
2026-04-21 15:46 55.61690 -3.52790 6510 ft 243 kts 323°
2026-04-21 15:46 55.62987 -3.54733 6349 ft 245 kts 323°
2026-04-21 15:47 55.64297 -3.56690 5982 ft 245 kts 323°
2026-04-21 15:47 55.65588 -3.58610 5720 ft 240 kts 323°
2026-04-21 15:47 55.66868 -3.60505 5514 ft 241 kts 324°
2026-04-21 15:47 55.68138 -3.62389 5344 ft 230 kts 323°
2026-04-21 15:48 55.69282 -3.64108 5216 ft 207 kts 323°
2026-04-21 15:48 55.70354 -3.65709 5114 ft 194 kts 325°
2026-04-21 15:48 55.71371 -3.67215 5018 ft 189 kts 325°
2026-04-21 15:48 55.72374 -3.68710 4921 ft 187 kts 324°
2026-04-21 15:49 55.73371 -3.70199 4813 ft 187 kts 326°
2026-04-21 15:49 55.74361 -3.71682 4712 ft 186 kts 326°
2026-04-21 15:49 55.75343 -3.73145 4601 ft 187 kts 325°
2026-04-21 15:49 55.76315 -3.74705 4498 ft 188 kts 325°
2026-04-21 15:50 55.77361 -3.76273 4387 ft 210 kts 324°
2026-04-21 15:50 55.78544 -3.77979 4268 ft 224 kts 331°
2026-04-21 15:50 55.79993 -3.78635 4112 ft 214 kts 11°
2026-04-21 15:50 55.81233 -3.77457 3976 ft 199 kts 53°
2026-04-21 15:51 55.81981 -3.75434 3972 ft 198 kts 61°
2026-04-21 15:51 55.82707 -3.73377 3994 ft 195 kts 60°
2026-04-21 15:51 55.83399 -3.71361 3993 ft 189 kts 62°
2026-04-21 15:51 55.84074 -3.69358 3992 ft 188 kts 62°
2026-04-21 15:52 55.84760 -3.67377 3906 ft 189 kts 62°
2026-04-21 15:52 55.85433 -3.65361 3684 ft 190 kts 61°
2026-04-21 15:52 55.85900 -3.64031 3511 ft 184 kts 60°
2026-04-21 15:52 55.86774 -3.61447 3176 ft 185 kts 62°
2026-04-21 15:53 55.87439 -3.59514 2923 ft 183 kts 60°
2026-04-21 15:53 55.88108 -3.57534 2662 ft 184 kts 62°
2026-04-21 15:53 55.88761 -3.55613 2416 ft 179 kts 61°
2026-04-21 15:53 55.89406 -3.53716 2159 ft 182 kts 60°
2026-04-21 15:54 55.90068 -3.51772 1905 ft 185 kts 60°
2026-04-21 15:54 55.90724 -3.49839 1653 ft 181 kts 62°
2026-04-21 15:54 55.91340 -3.47907 1401 ft 174 kts 63°
2026-04-21 15:54 55.91903 -3.46113 1157 ft 161 kts 62°
2026-04-21 15:55 55.92465 -3.44601 948 ft 138 kts 57°
2026-04-21 15:55 55.92967 -3.43225 762 ft 126 kts 59°
2026-04-21 15:55 55.93393 -3.42059 592 ft 102 kts 59°
2026-04-21 15:55 55.93703 -3.41118 453 ft 81 kts 62°
2026-04-21 15:56 55.93987 -3.40249 322 ft 89 kts 64°
2026-04-21 15:56 55.94320 -3.39262 218 ft 94 kts 62°
2026-04-21 15:56 55.94611 -3.38408 114 ft 67 kts 61°
2026-04-21 15:56 55.94819 -3.37789 108 ft 51 kts 63°
2026-04-21 15:57 55.94969 -3.37327 106 ft 35 kts 59°
2026-04-21 15:57 55.95090 -3.36963 108 ft 35 kts 59°
2026-04-21 15:57 55.95210 -3.36608 107 ft 28 kts 59°
2026-04-21 15:57 55.95244 -3.36407 105 ft 13 kts 139°
2026-04-21 15:58 55.95186 -3.36341 109 ft 8 kts 148°
2026-04-21 15:58 55.95175 -3.36328 110 ft 0 kts 145°
2026-04-21 15:58 55.95150 -3.36238 110 ft 13 kts 66°
2026-04-21 15:59 55.95183 -3.36137 110 ft 15 kts 59°
2026-04-21 15:59 55.95171 -3.35950 110 ft 15 kts 148°
2026-04-21 15:59 55.95097 -3.35804 110 ft 17 kts 130°
2026-04-21 15:59 55.95030 -3.35614 110 ft 20 kts 119°
2026-04-21 16:00 55.94952 -3.35358 110 ft 24 kts 118°
2026-04-21 16:00 55.94885 -3.35141 110 ft 17 kts 120°
2026-04-21 16:00 55.94825 -3.34946 110 ft 20 kts 118°
2026-04-21 16:00 55.94760 -3.34778 110 ft 14 kts 100°
2026-04-21 16:01 55.94808 -3.34612 110 ft 16 kts 58°
2026-04-21 16:01 55.94862 -3.34450 110 ft 14 kts 69°
2026-04-21 16:01 55.94879 -3.34312 110 ft 9 kts 86°
2026-04-21 16:01 55.94869 -3.34313 110 ft 0 kts 267°